TimeEDT,TemperatureF,Dew PointF,Humidity,Sea Level PressureIn,VisibilityMPH,Wind Direction,Wind SpeedMPH,Gust SpeedMPH,PrecipitationIn,Events,Conditions,WindDirDegrees,DateUTC
12:54 AM,57.0,48.9,74,30.25,10.0,SE,3.5,-,0.00,,Overcast,130,2013-04-28 04:54:00
1:54 AM,57.0,48.9,74,30.23,10.0,SE,3.5,-,N/A,,Overcast,130,2013-04-28 05:54:00
2:54 AM,57.0,48.9,74,30.21,10.0,Calm,Calm,-,N/A,,Overcast,0,2013-04-28 06:54:00
3:54 AM,57.0,48.9,74,30.20,10.0,Calm,Calm,-,0.00,Rain,Light Rain,0,2013-04-28 07:54:00
4:54 AM,55.9,50.0,80,30.20,10.0,ESE,5.8,-,0.00,,Overcast,110,2013-04-28 08:54:00
5:54 AM,54.0,51.1,90,30.22,5.0,SE,4.6,-,0.03,Rain,Rain,130,2013-04-28 09:54:00
6:17 AM,53.6,51.8,94,30.23,7.0,ESE,6.9,-,0.02,Rain,Light Rain,120,2013-04-28 10:17:00
6:54 AM,54.0,51.1,90,30.22,7.0,SE,6.9,-,0.05,Rain,Light Rain,130,2013-04-28 10:54:00
7:54 AM,54.0,51.1,90,30.23,7.0,SE,6.9,-,0.02,,Overcast,130,2013-04-28 11:54:00
8:54 AM,53.6,51.8,94,30.25,5.0,SSE,8.1,-,N/A,Rain,Light Rain,150,2013-04-28 12:54:00
9:54 AM,54.0,52.0,93,30.25,4.0,SSE,4.6,-,0.05,Rain,Light Rain,150,2013-04-28 13:54:00
10:05 AM,53.6,51.8,94,30.26,3.0,SE,4.6,-,0.01,Rain,Light Rain,140,2013-04-28 14:05:00
10:54 AM,54.0,52.0,93,30.24,5.0,East,9.2,-,0.06,Rain,Light Rain,100,2013-04-28 14:54:00
11:54 AM,55.0,52.0,89,30.24,5.0,SE,6.9,-,0.02,Rain,Light Rain,130,2013-04-28 15:54:00
12:54 PM,55.9,53.1,90,30.22,6.0,ESE,8.1,-,0.01,Rain,Light Rain,120,2013-04-28 16:54:00
1:54 PM,55.9,52.0,87,30.21,8.0,ESE,9.2,-,0.03,,Overcast,110,2013-04-28 17:54:00
2:54 PM,55.0,51.1,86,30.19,6.0,SE,11.5,-,0.00,,Overcast,130,2013-04-28 18:54:00
3:20 PM,53.6,51.8,94,30.17,5.0,SE,11.5,-,0.00,Rain,Light Rain,130,2013-04-28 19:20:00
3:54 PM,54.0,51.1,90,30.16,6.0,ESE,10.4,-,0.00,Rain,Light Rain,120,2013-04-28 19:54:00
4:54 PM,52.0,48.9,89,30.15,7.0,ESE,12.7,-,0.00,Rain,Light Rain,110,2013-04-28 20:54:00
5:54 PM,52.0,50.0,93,30.10,8.0,SE,15.0,-,0.01,,Overcast,130,2013-04-28 21:54:00
6:54 PM,53.1,50.0,89,30.11,10.0,South,4.6,-,0.00,,Overcast,170,2013-04-28 22:54:00
7:54 PM,53.1,48.9,86,30.13,10.0,SSE,9.2,-,N/A,,Overcast,150,2013-04-28 23:54:00
8:34 PM,53.6,48.2,82,30.14,10.0,SSE,5.8,-,N/A,,Overcast,160,2013-04-29 00:34:00
8:54 PM,53.1,48.9,86,30.13,10.0,SSE,9.2,-,N/A,,Overcast,150,2013-04-29 00:54:00
9:54 PM,53.1,48.9,86,30.13,10.0,ESE,4.6,-,N/A,,Overcast,120,2013-04-29 01:54:00
10:20 PM,53.6,48.2,82,30.11,10.0,ESE,5.8,-,N/A,,Overcast,120,2013-04-29 02:20:00
10:38 PM,53.6,48.2,82,30.13,10.0,Calm,Calm,-,N/A,,Overcast,0,2013-04-29 02:38:00
10:54 PM,53.1,48.9,86,30.12,9.0,Calm,Calm,-,N/A,,Overcast,0,2013-04-29 02:54:00
11:54 PM,53.1,48.9,86,30.12,4.0,NNE,5.8,-,0.00,Rain,Light Rain,20,2013-04-29 03:54:00